Location: Lahitte
(43.6596°N, 0.6805°E)
Time: 07:39:12
(UTC+00:00)

Cosmos 1354 Rocket - Pass Details

Date: 15 May 2026
Orbit: 761 x 778 km, 74.0° (Epoch: 5 June)

Event Time Altitude Azimuth Distance (km) Brightness Sun altitude
Rises 21:59:06 0° 340° (NNW) 3,243 8.7 -22.0°
Reaches altitude 10° 22:01:30 10° 342° (NNW) 2,310 7.6 -22.2°
Maximum altitude 22:06:45 78° 69° (ENE) 785 3.9 -22.7°
Enters shadow 22:07:46 57° 139° (SE) 892 3.9 -22.8°
